This is the latest recevied weather packets stored in our database for station/object IT9RID. If no packets are shown the sender has not sent any weather packets the latest 10 day(s).
| Time | Temp. | Humidity | Pressure | Rain* | Wind** | Luminosity | Snow |
|---|---|---|---|---|---|---|---|
| 1778111695 | 19.44° C | 44% | 1011.8 hPa | 0 mm | - | - | - |
| 1778111095 | 19.44° C | 43% | 1011.8 hPa | 0 mm | - | - | - |
| 1778110495 | 20° C | 43% | 1012 hPa | 0 mm | - | - | - |
| 1778109895 | 20° C | 41% | 1012.1 hPa | 0 mm | - | - | - |
| 1778109295 | 20° C | 41% | 1012.1 hPa | 0 mm | - | - | - |
| 1778108695 | 20° C | 41% | 1011.9 hPa | 0 mm | - | - | - |
| 1778108094 | 20° C | 41% | 1011.8 hPa | 0 mm | - | - | - |
| 1778107494 | 20° C | 41% | 1011.7 hPa | 0 mm | - | - | - |
| 1778106894 | 20° C | 42% | 1011.8 hPa | 0 mm | - | - | - |
| 1778106294 | 20° C | 41% | 1011.6 hPa | 0 mm | - | - | - |
| 1778105694 | 20° C | 40% | 1011.7 hPa | 0 mm | - | - | - |
| 1778105094 | 19.44° C | 42% | 1011.8 hPa | 0 mm | - | - | - |
| 1778104493 | 19.44° C | 45% | 1011.6 hPa | 0 mm | - | - | - |
| 1778103893 | 19.44° C | 44% | 1011.5 hPa | 0 mm | - | - | - |
| 1778103293 | 18.89° C | 47% | 1011.8 hPa | 0 mm | - | - | - |
| 1778102693 | 18.89° C | 48% | 1011.5 hPa | 0 mm | - | - | - |
| 1778101493 | 18.89° C | 48% | 1010.7 hPa | 0 mm | - | - | - |
| 1778100892 | 18.89° C | 44% | 1010.8 hPa | 0 mm | - | - | - |
| 1778100292 | 18.89° C | 44% | 1011.4 hPa | 0 mm | - | - | - |
| 1778099692 | 19.44° C | 45% | 1011.7 hPa | 0 mm | - | - | - |
| 1778099092 | 19.44° C | 45% | 1011.6 hPa | 0 mm | - | - | - |
| 1778098492 | 19.44° C | 46% | 1011.6 hPa | 0 mm | - | - | - |
| 1778097892 | 19.44° C | 47% | 1012 hPa | 0 mm | - | - | - |
| 1778097291 | 20° C | 37% | 1012.1 hPa | 0 mm | - | - | - |
| 1778096691 | 20° C | 36% | 1012.3 hPa | 0 mm | - | - | - |
* Rain latest hour (hover to see other rain measurements)
** Current wind speed in m/s (hover to see current wind gust speed)